Time,TemperatureF,DewpointF,PressureIn,WindDirection,WindDirectionDegrees,WindSpeedMPH,WindSpeedGustMPH,Humidity,HourlyPrecipIn,Conditions,Clouds,dailyrainin,SolarRadiationWatts/m^2,SoftwareType,DateUTC
2013-07-19 00:01:00,69.0,41.0,-100.00,NNW,339,6.0,11.0,36,0.00,,,0.00,0.000000,,2013-07-19 07:01:00,
2013-07-19 00:12:00,69.0,41.0,-100.00,NNW,339,6.0,11.0,36,0.00,,,0.00,0.000000,,2013-07-19 07:12:00,
2013-07-19 00:43:00,64.0,40.0,-100.00,NW,311,4.0,8.0,42,0.00,,,-99.99,0.000000,,2013-07-19 07:43:00,
2013-07-19 00:53:00,64.0,40.0,-100.00,NW,311,4.0,8.0,42,0.00,,,-99.99,0.000000,,2013-07-19 07:53:00,
2013-07-19 01:01:00,64.0,40.0,-100.00,NW,311,4.0,8.0,42,0.00,,,-99.99,0.000000,,2013-07-19 08:01:00,
2013-07-19 01:11:00,64.0,40.0,-100.00,NW,311,4.0,8.0,42,0.00,,,-99.99,0.000000,,2013-07-19 08:11:00,
2013-07-19 01:43:00,60.0,39.0,-100.00,West,273,5.0,6.0,45,0.00,,,-99.99,0.000000,,2013-07-19 08:43:00,
2013-07-19 01:52:00,60.0,39.0,-100.00,West,273,5.0,6.0,45,0.00,,,-99.99,0.000000,,2013-07-19 08:52:00,
2013-07-19 02:02:00,60.0,39.0,-100.00,West,273,5.0,6.0,45,0.00,,,-99.99,0.000000,,2013-07-19 09:02:00,
2013-07-19 02:11:00,60.0,39.0,-100.00,West,273,5.0,6.0,45,0.00,,,-99.99,0.000000,,2013-07-19 09:11:00,
2013-07-19 02:43:00,58.0,36.0,-100.00,WSW,257,4.0,7.0,44,0.00,,,0.00,0.000000,,2013-07-19 09:43:00,
2013-07-19 02:52:00,58.0,36.0,-100.00,WSW,257,4.0,7.0,44,0.00,,,0.00,0.000000,,2013-07-19 09:52:00,
2013-07-19 03:01:00,58.0,36.0,-100.00,WSW,257,4.0,7.0,44,0.00,,,0.00,0.000000,,2013-07-19 10:01:00,
2013-07-19 03:11:00,58.0,36.0,-100.00,WSW,257,4.0,7.0,44,0.00,,,0.00,0.000000,,2013-07-19 10:11:00,
2013-07-19 03:43:00,56.0,33.0,-100.00,WSW,248,5.0,7.0,42,0.00,,,-99.99,0.000000,,2013-07-19 10:43:00,
2013-07-19 03:52:00,56.0,33.0,-100.00,WSW,248,5.0,7.0,42,0.00,,,-99.99,0.000000,,2013-07-19 10:52:00,
2013-07-19 04:02:00,56.0,33.0,-100.00,WSW,248,5.0,7.0,42,0.00,,,-99.99,0.000000,,2013-07-19 11:02:00,
2013-07-19 04:12:00,56.0,33.0,-100.00,WSW,248,5.0,7.0,42,0.00,,,-99.99,0.000000,,2013-07-19 11:12:00,
2013-07-19 04:33:00,57.0,32.0,-100.00,WSW,254,6.0,7.0,38,0.00,,,0.00,0.000000,,2013-07-19 11:33:00,
2013-07-19 04:43:00,57.0,32.0,-100.00,WSW,254,6.0,7.0,38,0.00,,,0.00,0.000000,,2013-07-19 11:43:00,
2013-07-19 04:52:00,57.0,32.0,-100.00,WSW,254,6.0,7.0,38,0.00,,,0.00,0.000000,,2013-07-19 11:52:00,
2013-07-19 05:01:00,57.0,32.0,-100.00,WSW,254,6.0,7.0,38,0.00,,,0.00,0.000000,,2013-07-19 12:01:00,
2013-07-19 06:43:00,55.0,31.0,-100.00,WSW,249,5.0,7.0,39,-99.99,,,0.00,6.000000,,2013-07-19 13:43:00,
2013-07-19 06:53:00,55.0,31.0,-100.00,WSW,249,5.0,7.0,39,-99.99,,,0.00,6.000000,,2013-07-19 13:53:00,
2013-07-19 07:02:00,55.0,31.0,-100.00,WSW,249,5.0,7.0,39,-99.99,,,0.00,6.000000,,2013-07-19 14:02:00,
2013-07-19 07:11:00,55.0,31.0,-100.00,WSW,249,5.0,7.0,39,-99.99,,,0.00,6.000000,,2013-07-19 14:11:00,
2013-07-19 07:43:00,61.0,34.0,-100.00,WSW,249,4.0,6.0,36,0.00,,,0.00,91.000000,,2013-07-19 14:43:00,
2013-07-19 07:53:00,61.0,34.0,-100.00,WSW,249,4.0,6.0,36,0.00,,,0.00,91.000000,,2013-07-19 14:53:00,
2013-07-19 08:02:00,61.0,34.0,-100.00,WSW,249,4.0,6.0,36,0.00,,,0.00,91.000000,,2013-07-19 15:02:00,
2013-07-19 08:11:00,61.0,34.0,-100.00,WSW,249,4.0,6.0,36,0.00,,,0.00,91.000000,,2013-07-19 15:11:00,
2013-07-19 09:32:00,76.0,29.0,-100.00,NE,52,4.0,8.0,18,0.00,,,0.00,388.000000,,2013-07-19 16:32:00,
2013-07-19 09:43:00,76.0,29.0,-100.00,NE,52,4.0,8.0,18,0.00,,,0.00,388.000000,,2013-07-19 16:43:00,
2013-07-19 09:52:00,76.0,29.0,-100.00,NE,52,4.0,8.0,18,0.00,,,0.00,388.000000,,2013-07-19 16:52:00,
2013-07-19 10:02:00,76.0,29.0,-100.00,NE,52,4.0,8.0,18,0.00,,,0.00,388.000000,,2013-07-19 17:02:00,
2013-07-19 10:11:00,76.0,29.0,-100.00,NE,52,4.0,8.0,18,0.00,,,0.00,388.000000,,2013-07-19 17:11:00,
2013-07-19 10:43:00,78.0,30.0,-100.00,NNE,29,5.0,10.0,17,0.00,,,0.00,385.000000,,2013-07-19 17:43:00,
2013-07-19 10:52:00,78.0,30.0,-100.00,NNE,29,5.0,10.0,17,0.00,,,0.00,385.000000,,2013-07-19 17:52:00,
2013-07-19 11:01:00,78.0,30.0,-100.00,NNE,29,5.0,10.0,17,0.00,,,0.00,385.000000,,2013-07-19 18:01:00,
2013-07-19 11:11:00,78.0,30.0,-100.00,NNE,29,5.0,10.0,17,0.00,,,0.00,385.000000,,2013-07-19 18:11:00,
2013-07-19 11:43:00,82.0,30.0,-100.00,NNE,30,6.0,12.0,15,0.00,,,0.00,403.000000,,2013-07-19 18:43:00,
2013-07-19 11:52:00,82.0,30.0,-100.00,NNE,30,6.0,12.0,15,0.00,,,0.00,403.000000,,2013-07-19 18:52:00,
2013-07-19 12:01:00,82.0,30.0,-100.00,NNE,30,6.0,12.0,15,0.00,,,0.00,403.000000,,2013-07-19 19:01:00,
2013-07-19 12:11:00,82.0,30.0,-100.00,NNE,30,6.0,12.0,15,0.00,,,0.00,403.000000,,2013-07-19 19:11:00,
2013-07-19 12:43:00,86.0,29.0,-100.00,NNE,20,6.0,12.0,13,0.00,,,0.00,325.000000,,2013-07-19 19:43:00,
2013-07-19 12:52:00,86.0,29.0,-100.00,NNE,20,6.0,12.0,13,0.00,,,0.00,325.000000,,2013-07-19 19:52:00,
2013-07-19 13:01:00,86.0,29.0,-100.00,NNE,20,6.0,12.0,13,0.00,,,0.00,325.000000,,2013-07-19 20:01:00,
2013-07-19 13:11:00,86.0,29.0,-100.00,NNE,20,6.0,12.0,13,0.00,,,0.00,325.000000,,2013-07-19 20:11:00,
2013-07-19 13:43:00,88.0,33.0,-100.00,NE,34,6.0,16.0,14,0.00,,,0.00,1051.000000,,2013-07-19 20:43:00,
2013-07-19 13:52:00,88.0,33.0,-100.00,NE,34,6.0,16.0,14,0.00,,,0.00,1051.000000,,2013-07-19 20:52:00,
2013-07-19 14:01:00,88.0,33.0,-100.00,NE,34,6.0,16.0,14,0.00,,,0.00,1051.000000,,2013-07-19 21:01:00,
2013-07-19 14:11:00,88.0,33.0,-100.00,NE,34,6.0,16.0,14,0.00,,,0.00,1051.000000,,2013-07-19 21:11:00,
2013-07-19 14:43:00,90.0,31.0,-100.00,NNE,30,6.0,15.0,12,0.00,,,0.00,1052.000000,,2013-07-19 21:43:00,
2013-07-19 14:52:00,90.0,31.0,-100.00,NNE,30,6.0,15.0,12,0.00,,,0.00,1052.000000,,2013-07-19 21:52:00,
2013-07-19 15:01:00,90.0,31.0,-100.00,NNE,30,6.0,15.0,12,0.00,,,0.00,1052.000000,,2013-07-19 22:01:00,
2013-07-19 15:11:00,90.0,31.0,-100.00,NNE,30,6.0,15.0,12,0.00,,,0.00,1052.000000,,2013-07-19 22:11:00,
2013-07-19 15:43:00,92.0,30.0,-100.00,North,11,6.0,13.0,11,0.00,,,0.00,984.000000,,2013-07-19 22:43:00,
2013-07-19 15:52:00,92.0,30.0,-100.00,North,11,6.0,13.0,11,0.00,,,0.00,984.000000,,2013-07-19 22:52:00,
2013-07-19 16:01:00,92.0,30.0,-100.00,North,11,6.0,13.0,11,0.00,,,0.00,984.000000,,2013-07-19 23:01:00,
2013-07-19 16:11:00,92.0,30.0,-100.00,North,11,6.0,13.0,11,0.00,,,0.00,984.000000,,2013-07-19 23:11:00,
2013-07-19 16:43:00,92.0,30.0,-100.00,North,4,6.0,15.0,11,0.00,,,0.00,895.000000,,2013-07-19 23:43:00,
2013-07-19 16:52:00,92.0,30.0,-100.00,North,4,6.0,15.0,11,0.00,,,0.00,895.000000,,2013-07-19 23:52:00,
2013-07-19 17:01:00,92.0,30.0,-100.00,North,4,6.0,15.0,11,0.00,,,0.00,895.000000,,2013-07-20 00:01:00,
2013-07-19 17:11:00,92.0,30.0,-100.00,North,4,6.0,15.0,11,0.00,,,0.00,895.000000,,2013-07-20 00:11:00,
2013-07-19 17:43:00,91.0,29.0,-100.00,North,11,7.0,14.0,11,0.00,,,0.00,728.000000,,2013-07-20 00:43:00,
2013-07-19 17:52:00,91.0,29.0,-100.00,North,11,7.0,14.0,11,0.00,,,0.00,728.000000,,2013-07-20 00:52:00,
2013-07-19 18:01:00,91.0,29.0,-100.00,North,11,7.0,14.0,11,0.00,,,0.00,728.000000,,2013-07-20 01:01:00,
2013-07-19 18:11:00,91.0,29.0,-100.00,North,11,7.0,14.0,11,0.00,,,0.00,728.000000,,2013-07-20 01:11:00,
2013-07-19 18:52:00,91.0,29.0,-100.00,NNE,14,6.0,14.0,11,0.00,,,0.00,556.000000,,2013-07-20 01:52:00,
2013-07-19 19:01:00,91.0,29.0,-100.00,NNE,14,6.0,14.0,11,0.00,,,0.00,556.000000,,2013-07-20 02:01:00,
2013-07-19 19:11:00,91.0,29.0,-100.00,NNE,14,6.0,14.0,11,0.00,,,0.00,556.000000,,2013-07-20 02:11:00,
2013-07-19 19:44:00,88.0,27.0,-100.00,North,4,8.0,16.0,11,0.00,,,0.00,355.000000,,2013-07-20 02:44:00,
2013-07-19 19:52:00,88.0,27.0,-100.00,North,4,8.0,16.0,11,0.00,,,0.00,355.000000,,2013-07-20 02:52:00,
2013-07-19 20:02:00,88.0,27.0,-100.00,North,4,8.0,16.0,11,0.00,,,0.00,355.000000,,2013-07-20 03:02:00,
2013-07-19 20:11:00,88.0,27.0,-100.00,North,4,8.0,16.0,11,0.00,,,0.00,355.000000,,2013-07-20 03:11:00,
2013-07-19 20:44:00,83.0,27.0,-100.00,North,357,7.0,17.0,13,0.00,,,0.00,155.000000,,2013-07-20 03:44:00,
2013-07-19 20:53:00,83.0,27.0,-100.00,North,357,7.0,17.0,13,0.00,,,0.00,155.000000,,2013-07-20 03:53:00,
2013-07-19 21:01:00,83.0,27.0,-100.00,North,357,7.0,17.0,13,0.00,,,0.00,155.000000,,2013-07-20 04:01:00,
2013-07-19 21:11:00,83.0,27.0,-100.00,North,357,7.0,17.0,13,0.00,,,0.00,155.000000,,2013-07-20 04:11:00,
2013-07-19 21:33:00,76.0,41.0,-100.00,NNW,342,6.0,12.0,28,0.00,,,-99.99,8.000000,,2013-07-20 04:33:00,
2013-07-19 21:44:00,76.0,41.0,-100.00,NNW,342,6.0,12.0,28,0.00,,,-99.99,8.000000,,2013-07-20 04:44:00,
2013-07-19 21:52:00,76.0,41.0,-100.00,NNW,342,6.0,12.0,28,0.00,,,-99.99,8.000000,,2013-07-20 04:52:00,
2013-07-19 22:02:00,76.0,41.0,-100.00,NNW,342,6.0,12.0,28,0.00,,,-99.99,8.000000,,2013-07-20 05:02:00,
2013-07-19 22:11:00,76.0,41.0,-100.00,NNW,342,6.0,12.0,28,0.00,,,-99.99,8.000000,,2013-07-20 05:11:00,
2013-07-19 22:32:00,71.0,44.0,-100.00,NW,322,5.0,8.0,38,0.00,,,0.00,0.000000,,2013-07-20 05:32:00,
2013-07-19 22:52:00,71.0,44.0,-100.00,NW,322,5.0,8.0,38,0.00,,,0.00,0.000000,,2013-07-20 05:52:00,
2013-07-19 23:01:00,71.0,44.0,-100.00,NW,322,5.0,8.0,38,0.00,,,0.00,0.000000,,2013-07-20 06:01:00,
2013-07-19 23:11:00,71.0,44.0,-100.00,NW,322,5.0,8.0,38,0.00,,,0.00,0.000000,,2013-07-20 06:11:00,
2013-07-19 23:43:00,70.0,40.0,-100.00,NW,322,4.0,12.0,34,0.00,,,0.00,0.000000,,2013-07-20 06:43:00,
2013-07-19 23:52:00,70.0,40.0,-100.00,NW,322,4.0,12.0,34,0.00,,,0.00,0.000000,,2013-07-20 06:52:00,